Location: *
(33.8649°S, 62.1526°E)
Time: 16:46:26
(UTC+00:00)

BREEZE-M DEB (TANK) - Pass Details

Date: 17 January 2021
Orbit: 408 x 18322 km, 52.9° (Epoch: 03 March)

Event Time Altitude Azimuth Distance (km) Brightness Sun altitude
Rises 18:54:27 0° 228° (SW) 9,521 9.4 -33.2°
Reaches altitude 10° 19:03:37 10° 226° (SW) 6,089 8.2 -33.8°
Enters shadow 19:15:12 66° 216° (SW) 1,172 3.9 -34.4°
